FW6330 Weather Reports


Display with metric or nautical units.
time (UTC)temp
F
wind
direction
speed
MPH
gust
MPH
rain 1hr
in
rain 24hr
in
rain mn
in
humidity
%
barometer
mb
20260831204514 68 341 2.0 6.0 0.00 0.00 0.00 40 1012.3
20260831203013 68 315 0.0 3.0 0.00 0.00 0.00 39 1012.4
20260831201513 70 136 0.0 3.0 0.00 0.00 0.00 36 1012.6
20260831200008 68 58 0.0 4.0 0.00 0.00 0.00 36 1012.7
20260831194507 68 329 0.0 5.0 0.00 0.00 0.00 36 1012.7
20260831193003 68 79 0.0 2.0 0.00 0.00 0.00 36 1013.0
20260831191503 67 98 0.0 4.0 0.00 0.00 0.00 35 1013.2
20260831190002 67 149 0.0 4.0 0.00 0.00 0.00 33 1013.2
20260831184500 67 348 0.0 6.0 0.00 0.00 0.00 32 1013.2
20260831183003 68 340 1.0 5.0 0.00 0.00 0.00 29 1013.2
20260831181601 69 355 0.0 2.0 0.00 0.00 0.00 30 1013.1
20260831180058 68 255 0.0 5.0 0.00 0.00 0.00 34 1013.1
20260831174601 68 6 0.0 4.0 0.00 0.00 0.00 32 1013.1
20260831173127 67 84 0.0 3.0 0.00 0.00 0.00 29 1012.9
20260831171554 66 271 0.0 4.0 0.00 0.00 0.00 34 1013.0
20260831170053 67 65 0.0 2.0 0.00 0.00 0.00 37 1013.0
20260831164604 67 207 0.0 1.0 0.00 0.00 0.00 39 1013.0
20260831163053 65 62 0.0 2.0 0.00 0.00 0.00 41 1013.1
20260831161543 63 82 0.0 5.0 0.00 0.00 0.00 42 1013.2
20260831160039 63 150 0.0 2.0 0.00 0.00 0.00 48 1013.4
20260831154537 61 325 0.0 2.0 0.00 0.00 0.00 51 1013.6
20260831153039 59 223 0.0 0.0 0.00 0.00 0.00 62 1013.7
20260831151529 56 73 0.0 1.0 0.00 0.00 0.00 67 1013.9
20260831150030 49 8 0.0 0.0 0.00 0.00 0.00 79 1013.9
20260831144519 46 141 0.0 0.0 0.00 0.00 0.00 79 1013.9
20260831143019 44 169 0.0 0.0 0.00 0.00 0.00 81 1013.8
20260831141520 42 187 0.0 0.0 0.00 0.00 0.00 83 1013.9
20260831140018 42 306 0.0 0.0 0.00 0.00 0.00 82 1013.8
20260831134519 41 328 0.0 0.0 0.00 0.00 0.00 83 1013.8
20260831133024 41 93 0.0 0.0 0.00 0.00 0.00 81 1013.8
20260831131514 41 319 0.0 0.0 0.00 0.00 0.00 81 1013.8
20260831130016 42 120 0.0 0.0 0.00 0.00 0.00 80 1014.0
20260831124533 42 236 0.0 0.0 0.00 0.00 0.00 80 1014.0
20260831123010 42 338 0.0 0.0 0.00 0.00 0.00 80 1014.1
20260831121510 42 175 0.0 0.0 0.00 0.00 0.00 80 1014.1
20260831120010 42 110 0.0 0.0 0.00 0.00 0.00 78 1014.1
20260831114507 43 250 0.0 0.0 0.00 0.00 0.00 78 1014.1
20260831113009 43 274 0.0 1.0 0.00 0.00 0.00 78 1014.2
20260831111504 43 6 0.0 0.0 0.00 0.00 0.00 81 1014.2
20260831110002 43 186 0.0 0.0 0.00 0.00 0.00 81 1014.3
20260831104609 43 195 0.0 0.0 0.00 0.00 0.00 83 1014.3
20260831103106 44 227 0.0 0.0 0.00 0.00 0.00 83 1014.3
20260831101600 44 148 0.0 0.0 0.00 0.00 0.00 82 1014.4
20260831100056 44 265 0.0 0.0 0.00 0.00 0.00 83 1014.3
20260831094607 45 248 0.0 0.0 0.00 0.00 0.00 83 1014.3
20260831093055 45 38 0.0 1.0 0.00 0.00 0.00 82 1014.3
20260831091555 45 180 0.0 0.0 0.00 0.00 0.00 83 1014.4
20260831090100 45 316 0.0 0.0 0.00 0.00 0.00 82 1014.4
20260831084551 45 135 0.0 0.0 0.00 0.00 0.00 83 1014.5
20260831083059 45 127 0.0 0.0 0.00 0.00 0.00 82 1014.6
20260831081550 45 246 0.0 0.0 0.00 0.00 0.00 82 1014.6
20260831080047 45 184 0.0 0.0 0.00 0.00 0.00 81 1014.8
20260831074547 45 75 0.0 0.0 0.00 0.00 0.00 82 1014.7
20260831073054 46 207 0.0 1.0 0.00 0.00 0.00 81 1014.8
20260831071542 46 225 0.0 0.0 0.00 0.00 0.00 81 1014.7
20260831070049 46 252 0.0 0.0 0.00 0.00 0.00 80 1014.7
20260831064540 47 113 0.0 1.0 0.00 0.00 0.00 81 1014.8
20260831063039 47 58 0.0 1.0 0.00 0.00 0.00 81 1014.8
20260831061538 47 342 0.0 0.0 0.00 0.00 0.00 82 1014.9
20260831060041 47 31 0.0 0.0 0.00 0.00 0.00 81 1014.9
20260831054536 48 202 0.0 0.0 0.00 0.00 0.00 80 1015.0
20260831053037 48 289 0.0 2.0 0.00 0.00 0.00 79 1015.1
20260831051536 49 41 0.0 0.0 0.00 0.00 0.00 78 1015.1
20260831050050 49 52 0.0 1.0 0.00 0.00 0.00 78 1015.1
20260831044541 49 236 0.0 0.0 0.00 0.00 0.00 76 1015.1
20260831043034 50 13 0.0 0.0 0.00 0.00 0.00 76 1015.0
20260831041533 51 76 0.0 1.0 0.00 0.00 0.00 75 1014.8
20260831040033 51 335 0.0 0.0 0.00 0.00 0.00 74 1014.7
20260831034531 52 217 0.0 1.0 0.00 0.00 0.00 73 1014.6
20260831033031 53 46 0.0 0.0 0.00 0.00 0.00 71 1014.4
20260831031531 54 139 0.0 0.0 0.00 0.00 0.00 70 1014.2
20260831030030 55 169 0.0 0.0 0.00 0.00 0.00 68 1014.0
20260831024539 56 333 0.0 0.0 0.00 0.00 0.00 67 1013.9
20260831023030 57 150 0.0 0.0 0.00 0.00 0.00 64 1013.9
20260831021528 59 2 0.0 0.0 0.00 0.00 0.00 61 1013.8
20260831020042 60 220 0.0 0.0 0.00 0.00 0.00 57 1014.0
20260831014527 62 193 0.0 0.0 0.00 0.00 0.00 52 1014.0
20260831013027 63 63 0.0 3.0 0.00 0.00 0.00 48 1014.0
20260831011525 64 124 0.0 0.0 0.00 0.00 0.00 43 1014.1
20260831010033 65 195 0.0 1.0 0.00 0.00 0.00 43 1014.1
20260831004523 66 190 0.0 3.0 0.00 0.00 0.00 44 1013.9
20260831003022 67 165 0.0 2.0 0.00 0.00 0.00 43 1013.9
20260831001534 67 340 0.0 2.0 0.00 0.00 0.00 45 1014.0
20260831000022 68 238 0.0 2.0 0.00 0.00 0.00 44 1014.0
20260830234537 69 218 0.0 3.0 0.00 0.00 0.00 43 1014.0
20260830233022 69 143 0.0 4.0 0.00 0.00 0.00 44 1014.1
20260830231519 69 212 0.0 5.0 0.00 0.00 0.00 42 1014.1
20260830230031 69 222 0.0 5.0 0.00 0.00 0.00 42 1014.2
20260830224529 69 238 0.0 3.0 0.00 0.00 0.00 40 1014.3
20260830223020 69 181 0.0 4.0 0.00 0.00 0.00 41 1014.6
20260830221517 69 164 0.0 7.0 0.00 0.00 0.00 41 1014.7
20260830220027 69 230 0.0 4.0 0.00 0.00 0.00 41 1015.0
20260830214516 69 164 0.0 3.0 0.00 0.00 0.00 40 1015.2
20260830213016 69 191 1.0 5.0 0.00 0.00 0.00 39 1015.4
20260830211515 69 193 0.0 4.0 0.00 0.00 0.00 39 1015.6
20260830210013 69 63 0.0 3.0 0.00 0.00 0.00 39 1015.7